Home > Time Zones > World Clock > Weather > Togo > Lome > Past weeks

Flag for Togo Weather past 2 weeks in Lome, Togo

Now
81 °F

Passing clouds.


Feels Like: 88 °F
Forecast: 78 / 89 °F
Wind: 3 mph from West

Location: Lome Airport

Current Time: Dec 22, 2014 at 2:52:43 AM

Latest Report: Dec 22, 2014 at 2:00 AM


Visibility: 5 mi

Pressure: 29.86 "Hg

Humidity: 94%

Dew point: 79 °F

Location of LomeLocation

Historic Weather in Lome — Graph

°F

Lome temperature yesterday

Maximum temperature yesterday: 90 °F (at 11:00 AM)
Minimum temperature yesterday: 77 °F (at 6:00 AM)
Average temperature yesterday: 84 °F

Past Weeks' High & Low Weather Summary

 TemperatureHumidityPressure
High91 °F (Dec 8, 1:00 PM)100% (Dec 13, 5:00 AM)29.95 "Hg (Dec 13, 5:00 AM)
Low75 °F (Dec 14, 5:00 AM)52% (Dec 14, 12:00 PM)29.77 "Hg (Dec 10, 3:00 PM)
Average83 °F82%29.87 "Hg
* Reported Dec 7 6:00 AM — Dec 22 1:00 AM, Lome, Weather by CustomWeather, © 2014

Note: Actual official high and low records may vary slightly from our data, if they occured in-between our weather recording intervals... More about our weather records

Advertising

Lome weather history for previous 24 hours

 ConditionsComfort  
Time TempWeatherWind HumidityBarometerVisibility
1:00 AM
Dec 22
81 °FPassing clouds.1 mph94%29.89 "Hg5 mi
12:00 AM82 °FPassing clouds.3 mph84%29.89 "Hg5 mi
11:00 PM
Dec 21
82 °FPassing clouds.9 mph89%29.92 "Hg5 mi
10:00 PM82 °FPassing clouds.8 mph89%29.92 "Hg5 mi
9:00 PM82 °FPassing clouds.8 mph89%29.95 "Hg5 mi
8:00 PM82 °FPassing clouds.9 mph89%29.92 "Hg5 mi
7:00 PM82 °FPassing clouds.10 mph89%29.89 "Hg5 mi
6:00 PM84 °FPassing clouds.12 mph84%29.86 "Hg5 mi
5:00 PM84 °FPassing clouds.7 mph79%29.86 "Hg5 mi
4:00 PM88 °FPassing clouds.13 mph70%29.83 "Hg5 mi
3:00 PM88 °FPassing clouds.12 mph66%29.83 "Hg5 mi
2:00 PM90 °FPassing clouds.13 mph67%29.86 "Hg5 mi
1:00 PM90 °FPassing clouds.13 mph67%29.89 "Hg5 mi
12:00 PM90 °FPassing clouds.12 mph67%29.89 "Hg5 mi
11:00 AM90 °FPassing clouds.10 mph63%29.92 "Hg5 mi
10:00 AM88 °FScattered clouds.7 mph70%29.95 "Hg5 mi
9:00 AM86 °FPassing clouds.9 mph75%29.95 "Hg5 mi
8:00 AM82 °FPassing clouds.5 mph89%29.92 "Hg4 mi
7:00 AM77 °FFog.No wind94%29.89 "Hg2 mi
6:00 AM77 °FFog.1 mph89%29.89 "Hg2 mi
5:00 AM79 °FPassing clouds.2 mph94%29.86 "Hg4 mi
4:00 AM81 °FPassing clouds.2 mph89%29.86 "Hg5 mi
3:00 AM81 °FPassing clouds.2 mph89%29.86 "Hg5 mi
2:00 AM81 °FPassing clouds.2 mph89%29.86 "Hg5 mi
Weather by CustomWeather, © 2014

See weather overviewHow to use our weather pages